Terminal Aerodrome Forecast
Issued by NWS Twin Cities, MN

Home | Current Version | Previous Version | Graphics & Text | Print | Product List | Glossary On
Versions: 1 2 3 4 5 6 7 8 9 10 11 12 13 14 15 16 17 18 19 20 21 22 23 24
000
FTUS43 KMPX 311720
TAFMSP
TAF
KMSP 311720Z 3118/0124 09010KT P6SM BKN200
     FM312200 10009KT P6SM BKN150
     FM010700 10005KT P6SM SCT100 SCT250
     FM011500 12009KT P6SM SCT120 SCT250=

USA.gov is the U.S. government's official web portal to all federal, state and local government web resources and services.